Wilmington, NC

3:49 AM EDT on May 01, 2017 (GMT -0400)
Wilmington International

Weather History for KILM - May, 2013

Change the Weather History Date:

Saturday, May 18, 2013

  Actual Average Record
Temperature  
Mean Temperature 76 °F 71 °F  
Max Temperature 84 °F 81 °F 94 °F (1960)
Min Temperature 67 °F 61 °F 43 °F (1875)
Degree Days  
Heating Degree Days 0 1  
Month to date heating degree days 27 24  
Since 1 July heating degree days 2440 2406  
Cooling Degree Days 11 6  
Month to date cooling degree days 80 89  
Year to date cooling degree days 142 177  
Growing Degree Days 25 (Base 50)    
Moisture  
Dew Point 65 °F    
Average Humidity 72    
Maximum Humidity 93    
Minimum Humidity 51    
Precipitation  
Precipitation 0.00 in 0.15 in 2.61 in (1872)
Month to date precipitation 0.55 2.37  
Year to date precipitation 15.96 16.78  
Sea Level Pressure  
Sea Level Pressure 30.14 in    
Wind  
Wind Speed 6 mph (SSW)    
Max Wind Speed 14 mph    
Max Gust Speed 20 mph    
Visibility 10 miles    
Events      
T = Trace of Precipitation, MM = Missing Value Source: NWS Daily Summary

Daily Weather History Graph

Daily Weather History Graph

Search for Another Location

Airport or City:

Trip Planner

Search our weather history database for the weather conditions in past years. The results will help you decide how hot, cold, wet, or windy it might be!

Date:

Astronomy

May. 18, 2013 Rise Set
Actual Time 6:07 AM EDT 8:09 PM EDT
Civil Twilight 5:39 AM EDT 8:37 PM EDT
Nautical Twilight 5:05 AM EDT 9:11 PM EDT
Astronomical Twilight 4:28 AM EDT 9:47 PM EDT
Moon 1:28 PM EDT (5/18) 1:40 AM EDT (5/18)
Length of Visible Light 14h 57m
Length of Day
14h 01m
First Quarter, 55% of the Moon is Illuminated
May 18
First Quarter
May 25
Full
May 31
Last Quarter
Jun 8
New
Jun 16
First Quarter

Hourly Weather History & Observations

Time (EDT) Temp. Heat Index Dew Point Humidity Pressure Visibility Wind Dir Wind Speed Gust Speed Precip Events Conditions
12:53 AM 70.0 °F - 61.0 °F 73% 30.12 in 10.0 mi SW 5.8 mph - N/A   Clear
1:53 AM 69.1 °F - 62.1 °F 78% 30.11 in 10.0 mi SW 4.6 mph - N/A   Clear
2:53 AM 69.1 °F - 64.0 °F 84% 30.11 in 10.0 mi SSW 4.6 mph - N/A   Scattered Clouds
3:53 AM 68.0 °F - 64.0 °F 87% 30.11 in 10.0 mi SW 4.6 mph - N/A   Clear
4:53 AM 68.0 °F - 64.0 °F 87% 30.12 in 10.0 mi South 3.5 mph - N/A   Partly Cloudy
5:53 AM 66.9 °F - 64.0 °F 90% 30.13 in 10.0 mi Calm Calm - N/A   Mostly Cloudy
6:53 AM 68.0 °F - 64.9 °F 90% 30.15 in 10.0 mi ESE 3.5 mph - N/A   Clear
7:53 AM 71.1 °F - 66.9 °F 87% 30.17 in 10.0 mi South 4.6 mph - N/A   Clear
8:28 AM 73.4 °F - 66.2 °F 78% 30.17 in 10.0 mi SSW 5.8 mph - N/A   Mostly Cloudy
8:36 AM 73.4 °F - 66.2 °F 78% 30.17 in 10.0 mi SSW 8.1 mph - N/A   Scattered Clouds
8:53 AM 75.0 °F - 68.0 °F 79% 30.17 in 10.0 mi SSW 8.1 mph - N/A   Partly Cloudy
9:53 AM 77.0 °F - 66.9 °F 71% 30.18 in 10.0 mi SW 9.2 mph - N/A   Partly Cloudy
10:53 AM 78.1 °F - 66.0 °F 66% 30.18 in 10.0 mi SW 8.1 mph - N/A   Mostly Cloudy
11:14 AM 80.6 °F 82.7 °F 66.2 °F 61% 30.17 in 10.0 mi SW 8.1 mph - N/A   Mostly Cloudy
11:53 AM 81.0 °F 83.0 °F 66.0 °F 60% 30.17 in 10.0 mi SSW 8.1 mph - N/A   Mostly Cloudy
12:53 PM 81.0 °F 82.7 °F 64.9 °F 58% 30.15 in 10.0 mi SW 8.1 mph - N/A   Mostly Cloudy
1:53 PM 82.9 °F 84.4 °F 64.0 °F 53% 30.14 in 10.0 mi SSW 6.9 mph - N/A   Scattered Clouds
2:53 PM 84.2 °F 85.6 °F 64.4 °F 51% 30.11 in 10.0 mi SSW 11.5 mph 16.1 mph N/A   Partly Cloudy
3:53 PM 82.9 °F 84.4 °F 64.0 °F 53% 30.11 in 10.0 mi SSW 11.5 mph - N/A   Mostly Cloudy
4:53 PM 79.0 °F - 64.9 °F 62% 30.11 in 10.0 mi SSE 10.4 mph - N/A   Partly Cloudy
5:53 PM 78.1 °F - 64.9 °F 64% 30.11 in 10.0 mi South 10.4 mph - N/A   Clear
6:53 PM 75.9 °F - 64.9 °F 69% 30.12 in 10.0 mi South 11.5 mph - N/A   Clear
7:53 PM 73.9 °F - 64.9 °F 73% 30.14 in 10.0 mi South 6.9 mph - N/A   Clear
8:53 PM 73.0 °F - 64.9 °F 76% 30.14 in 10.0 mi South 4.6 mph - N/A   Clear
9:53 PM 72.0 °F - 64.9 °F 78% 30.15 in 10.0 mi South 5.8 mph - N/A   Clear
10:53 PM 71.1 °F - 66.0 °F 84% 30.15 in 10.0 mi SSE 3.5 mph - N/A   Clear
11:53 PM 71.1 °F - 66.9 °F 87% 30.15 in 10.0 mi Calm Calm - N/A   Clear